Time,TemperatureF,DewpointF,PressureIn,WindDirection,WindDirectionDegrees,WindSpeedMPH,WindSpeedGustMPH,Humidity,HourlyPrecipIn,Conditions,Clouds,dailyrainin,SolarRadiationWatts/m^2,SoftwareType,DateUTC
2013-05-12 00:04:00,57.9,57.3,29.70,SSW,196,4.0,7.0,98,0.00,,,0.25,0,Wunderground v.1.15,2013-05-12 04:04:00,
2013-05-12 00:09:00,58.0,57.4,29.70,SSW,200,4.0,4.0,98,0.00,,,0.25,0,Wunderground v.1.15,2013-05-12 04:09:00,
2013-05-12 00:14:00,58.1,57.5,29.70,SSE,165,3.0,5.0,98,0.00,,,0.25,0,Wunderground v.1.15,2013-05-12 04:14:00,
2013-05-12 00:19:00,58.0,57.4,29.69,South,181,4.0,7.0,98,0.00,,,0.25,0,Wunderground v.1.15,2013-05-12 04:19:00,
2013-05-12 00:29:00,57.4,56.6,29.69,SE,133,5.0,5.0,97,0.00,,,0.25,0,Wunderground v.1.15,2013-05-12 04:29:00,
2013-05-12 00:39:00,56.5,55.7,29.68,SSW,207,4.0,4.0,97,0.00,,,0.25,0,Wunderground v.1.15,2013-05-12 04:39:00,
2013-05-12 00:49:00,56.8,56.0,29.68,WSW,238,3.0,9.0,97,0.00,,,0.25,0,Wunderground v.1.15,2013-05-12 04:49:00,
2013-05-12 00:59:00,56.7,56.1,29.69,SE,128,4.0,9.0,98,0.00,,,0.25,0,Wunderground v.1.15,2013-05-12 04:59:00,
2013-05-12 01:09:00,55.5,54.7,29.68,South,183,5.0,9.0,97,0.00,,,0.25,0,Wunderground v.1.15,2013-05-12 05:09:00,
2013-05-12 01:14:00,55.7,54.9,29.68,SSE,157,4.0,9.0,97,0.00,,,0.25,0,Wunderground v.1.15,2013-05-12 05:14:00,
2013-05-12 01:24:00,55.7,54.9,29.68,South,177,5.0,11.0,97,0.00,,,0.25,0,Wunderground v.1.15,2013-05-12 05:24:00,
2013-05-12 01:29:00,55.9,55.3,29.68,SSE,153,4.0,4.0,98,0.00,,,0.25,0,Wunderground v.1.15,2013-05-12 05:29:00,
2013-05-12 01:34:00,55.8,55.2,29.68,SSE,149,3.0,11.0,98,0.00,,,0.25,0,Wunderground v.1.15,2013-05-12 05:34:00,
2013-05-12 01:44:00,55.7,55.1,29.67,SSW,199,2.0,11.0,98,0.00,,,0.25,0,Wunderground v.1.15,2013-05-12 05:44:00,
2013-05-12 01:54:00,55.9,55.3,29.67,SW,215,3.0,11.0,98,0.00,,,0.25,0,Wunderground v.1.15,2013-05-12 05:54:00,
2013-05-12 02:04:00,56.0,55.4,29.67,SW,215,2.0,9.0,98,0.00,,,0.25,0,Wunderground v.1.15,2013-05-12 06:04:00,
2013-05-12 02:09:00,56.1,55.5,29.66,SW,215,2.0,2.0,98,0.00,,,0.25,0,Wunderground v.1.15,2013-05-12 06:09:00,
2013-05-12 02:19:00,56.5,55.9,29.66,SW,228,3.0,9.0,98,0.00,,,0.00,0,Wunderground v.1.15,2013-05-12 06:19:00,
2013-05-12 02:29:00,56.8,56.2,29.65,SW,233,3.0,7.0,98,0.00,,,0.00,0,Wunderground v.1.15,2013-05-12 06:29:00,
2013-05-12 02:34:00,56.9,56.3,29.65,SW,234,3.0,7.0,98,0.00,,,0.00,0,Wunderground v.1.15,2013-05-12 06:34:00,
2013-05-12 02:44:00,57.0,56.4,29.65,SW,228,2.0,7.0,98,0.00,,,0.00,0,Wunderground v.1.15,2013-05-12 06:44:00,
2013-05-12 02:54:00,57.3,56.7,29.65,SW,228,2.0,7.0,98,0.00,,,0.00,0,Wunderground v.1.15,2013-05-12 06:54:00,
2013-05-12 03:04:00,57.4,56.8,29.64,SW,229,2.0,7.0,98,0.00,,,0.00,0,Wunderground v.1.15,2013-05-12 07:04:00,
2013-05-12 03:09:00,57.0,56.4,29.64,SW,229,1.0,1.0,98,0.00,,,0.00,0,Wunderground v.1.15,2013-05-12 07:09:00,
2013-05-12 03:19:00,56.9,56.3,29.64,SW,225,1.0,7.0,98,0.00,,,0.00,0,Wunderground v.1.15,2013-05-12 07:19:00,
2013-05-12 03:24:00,56.8,56.2,29.65,SW,225,1.0,7.0,98,0.00,,,0.00,0,Wunderground v.1.15,2013-05-12 07:24:00,
2013-05-12 03:34:00,55.5,54.9,29.66,SE,132,3.0,4.0,98,0.00,,,0.00,0,Wunderground v.1.15,2013-05-12 07:34:00,
2013-05-12 03:44:00,54.6,53.8,29.67,SSW,196,3.0,4.0,97,0.00,,,0.00,0,Wunderground v.1.15,2013-05-12 07:44:00,
2013-05-12 03:49:00,54.8,54.2,29.67,SSW,213,2.0,4.0,98,0.00,,,0.00,0,Wunderground v.1.15,2013-05-12 07:49:00,
2013-05-12 03:59:00,55.2,54.6,29.67,SSW,198,2.0,2.0,98,0.00,,,0.00,0,Wunderground v.1.15,2013-05-12 07:59:00,
2013-05-12 04:09:00,55.2,54.6,29.66,SSW,204,2.0,2.0,98,0.00,,,0.00,0,Wunderground v.1.15,2013-05-12 08:09:00,
2013-05-12 04:19:00,55.4,54.8,29.66,South,178,3.0,7.0,98,0.00,,,0.00,0,Wunderground v.1.15,2013-05-12 08:19:00,
2013-05-12 04:29:00,55.3,54.7,29.67,SSW,206,3.0,3.0,98,0.00,,,0.00,0,Wunderground v.1.15,2013-05-12 08:29:00,
2013-05-12 04:34:00,55.3,54.7,29.67,SSW,213,3.0,6.0,98,0.00,,,0.00,0,Wunderground v.1.15,2013-05-12 08:34:00,
2013-05-12 04:44:00,54.8,54.2,29.66,SW,216,3.0,6.0,98,0.00,,,0.01,0,Wunderground v.1.15,2013-05-12 08:44:00,
2013-05-12 04:49:00,54.5,53.9,29.67,South,186,4.0,4.0,98,0.00,,,0.01,0,Wunderground v.1.15,2013-05-12 08:49:00,
2013-05-12 04:59:00,54.4,53.8,29.66,SW,223,3.0,7.0,98,0.00,,,0.01,0,Wunderground v.1.15,2013-05-12 08:59:00,
2013-05-12 05:09:00,54.5,53.9,29.66,SW,215,3.0,7.0,98,0.00,,,0.02,0,Wunderground v.1.15,2013-05-12 09:09:00,
2013-05-12 05:14:00,54.7,54.1,29.66,SSW,202,3.0,7.0,98,0.00,,,0.02,0,Wunderground v.1.15,2013-05-12 09:14:00,
2013-05-12 05:24:00,55.1,54.5,29.66,SSW,213,3.0,7.0,98,0.00,,,0.02,0,Wunderground v.1.15,2013-05-12 09:24:00,
2013-05-12 05:34:00,55.5,54.9,29.66,SSW,200,3.0,7.0,98,0.00,,,0.02,0,Wunderground v.1.15,2013-05-12 09:34:00,
2013-05-12 05:44:00,55.8,55.2,29.66,South,169,3.0,7.0,98,0.00,,,0.02,0,Wunderground v.1.15,2013-05-12 09:44:00,
2013-05-12 05:49:00,55.9,55.3,29.66,SW,219,3.0,3.0,98,0.00,,,0.02,5,Wunderground v.1.15,2013-05-12 09:49:00,
2013-05-12 05:59:00,56.1,55.5,29.64,SW,221,2.0,8.0,98,0.00,,,0.02,5,Wunderground v.1.15,2013-05-12 09:59:00,
2013-05-12 06:09:00,56.3,55.7,29.66,SSW,192,2.0,8.0,98,0.00,,,0.02,0,Wunderground v.1.15,2013-05-12 10:09:00,
2013-05-12 06:14:00,56.3,55.7,29.66,South,190,3.0,8.0,98,0.00,,,0.02,5,Wunderground v.1.15,2013-05-12 10:14:00,
2013-05-12 06:24:00,56.2,55.6,29.67,SW,227,4.0,8.0,98,0.00,,,0.03,12,Wunderground v.1.15,2013-05-12 10:24:00,
2013-05-12 06:29:00,56.2,55.6,29.67,SSW,213,5.0,5.0,98,0.00,,,0.03,9,Wunderground v.1.15,2013-05-12 10:29:00,
2013-05-12 06:39:00,56.3,55.7,29.67,SW,221,5.0,5.0,98,0.00,,,0.03,14,Wunderground v.1.15,2013-05-12 10:39:00,
2013-05-12 06:49:00,56.4,55.8,29.67,SW,221,3.0,3.0,98,0.00,,,0.03,23,Wunderground v.1.15,2013-05-12 10:49:00,
2013-05-12 06:54:00,56.6,56.0,29.67,SW,221,3.0,10.0,98,0.00,,,0.03,28,Wunderground v.1.15,2013-05-12 10:54:00,
2013-05-12 07:04:00,56.9,56.3,29.67,SW,221,2.0,10.0,98,0.00,,,0.03,30,Wunderground v.1.15,2013-05-12 11:04:00,
2013-05-12 07:14:00,57.3,56.7,29.67,SW,221,1.0,10.0,98,0.00,,,0.03,49,Wunderground v.1.15,2013-05-12 11:14:00,
2013-05-12 07:24:00,57.7,57.1,29.66,SW,221,1.0,10.0,98,0.00,,,0.03,51,Wunderground v.1.15,2013-05-12 11:24:00,
2013-05-12 07:29:00,57.7,57.1,29.66,SW,221,2.0,2.0,98,0.00,,,0.03,60,Wunderground v.1.15,2013-05-12 11:29:00,
2013-05-12 07:39:00,57.4,56.8,29.65,SW,221,1.0,7.0,98,0.00,,,0.03,65,Wunderground v.1.15,2013-05-12 11:39:00,
2013-05-12 07:49:00,57.1,56.5,29.67,SW,221,2.0,7.0,98,0.00,,,0.03,51,Wunderground v.1.15,2013-05-12 11:49:00,
2013-05-12 07:59:00,57.4,56.8,29.67,SW,219,4.0,5.0,98,0.00,,,0.03,88,Wunderground v.1.15,2013-05-12 11:59:00,
2013-05-12 08:09:00,57.9,57.3,29.67,SSW,199,3.0,4.0,98,0.00,,,0.03,53,Wunderground v.1.15,2013-05-12 12:09:00,
2013-05-12 08:19:00,58.0,57.4,29.67,SW,227,4.0,4.0,98,0.00,,,0.03,63,Wunderground v.1.15,2013-05-12 12:19:00,
2013-05-12 08:29:00,58.0,57.4,29.67,West,281,5.0,9.0,98,0.00,,,0.03,100,Wunderground v.1.15,2013-05-12 12:29:00,
2013-05-12 08:39:00,57.9,57.1,29.67,SW,231,5.0,5.0,97,0.00,,,0.03,113,Wunderground v.1.15,2013-05-12 12:39:00,
2013-05-12 08:49:00,58.1,57.3,29.66,WSW,239,3.0,9.0,97,0.00,,,0.03,181,Wunderground v.1.15,2013-05-12 12:49:00,
2013-05-12 08:59:00,58.5,57.4,29.66,SW,214,2.0,10.0,96,0.00,,,0.03,200,Wunderground v.1.15,2013-05-12 12:59:00,
2013-05-12 09:04:00,58.7,57.3,29.66,WSW,248,3.0,10.0,95,0.00,,,0.03,267,Wunderground v.1.15,2013-05-12 13:04:00,
2013-05-12 09:14:00,58.8,57.1,29.65,SSW,205,4.0,10.0,94,0.00,,,0.03,223,Wunderground v.1.15,2013-05-12 13:14:00,
2013-05-12 09:24:00,58.9,56.6,29.66,SW,234,5.0,10.0,92,0.00,,,0.03,186,Wunderground v.1.15,2013-05-12 13:24:00,
2013-05-12 09:29:00,58.8,55.9,29.66,SW,216,7.0,9.0,90,0.00,,,0.03,181,Wunderground v.1.15,2013-05-12 13:29:00,
2013-05-12 09:39:00,58.9,55.4,29.66,SSW,210,6.0,9.0,88,0.00,,,0.03,158,Wunderground v.1.15,2013-05-12 13:39:00,
2013-05-12 09:49:00,59.2,55.0,29.66,West,268,5.0,9.0,86,0.00,,,0.03,278,Wunderground v.1.15,2013-05-12 13:49:00,
2013-05-12 09:59:00,60.1,54.6,29.67,SSW,205,6.0,6.0,82,0.00,,,0.03,891,Wunderground v.1.15,2013-05-12 13:59:00,
2013-05-12 10:09:00,61.5,54.6,29.67,SSW,198,8.0,12.0,78,0.00,,,0.03,860,Wunderground v.1.15,2013-05-12 14:09:00,
2013-05-12 10:19:00,62.0,54.3,29.66,SW,235,7.0,13.0,76,0.00,,,0.03,747,Wunderground v.1.15,2013-05-12 14:19:00,
2013-05-12 10:29:00,62.0,54.0,29.65,South,175,8.0,8.0,75,0.00,,,0.03,789,Wunderground v.1.15,2013-05-12 14:29:00,
2013-05-12 10:39:00,61.3,55.1,29.66,SW,232,8.0,8.0,80,0.00,,,0.03,789,Wunderground v.1.15,2013-05-12 14:39:00,
2013-05-12 10:49:00,61.7,55.5,29.66,SSW,207,8.0,8.0,80,0.00,,,0.03,865,Wunderground v.1.15,2013-05-12 14:49:00,
2013-05-12 10:59:00,63.2,55.9,29.66,SSW,211,6.0,16.0,77,0.00,,,0.03,891,Wunderground v.1.15,2013-05-12 14:59:00,
2013-05-12 11:09:00,61.3,54.4,29.66,South,190,6.0,6.0,78,0.00,,,0.03,606,Wunderground v.1.15,2013-05-12 15:09:00,
2013-05-12 11:19:00,60.8,54.2,29.66,SSW,196,7.0,16.0,79,0.00,,,0.03,499,Wunderground v.1.15,2013-05-12 15:19:00,
2013-05-12 11:29:00,61.1,54.2,29.65,SSW,210,6.0,14.0,78,0.00,,,0.03,501,Wunderground v.1.15,2013-05-12 15:29:00,
2013-05-12 11:34:00,61.3,54.4,29.65,South,188,6.0,14.0,78,0.00,,,0.03,721,Wunderground v.1.15,2013-05-12 15:34:00,
2013-05-12 11:44:00,62.3,54.6,29.66,SSE,150,6.0,14.0,76,0.00,,,0.03,1097,Wunderground v.1.15,2013-05-12 15:44:00,
2013-05-12 11:54:00,61.1,53.8,29.66,SSW,199,8.0,8.0,77,0.00,,,0.03,1041,Wunderground v.1.15,2013-05-12 15:54:00,
2013-05-12 12:04:00,61.6,54.0,29.66,SSW,211,8.0,12.0,76,0.00,,,0.03,1005,Wunderground v.1.15,2013-05-12 16:04:00,
2013-05-12 12:14:00,61.7,53.3,29.66,SW,222,9.0,16.0,74,0.00,,,0.03,956,Wunderground v.1.15,2013-05-12 16:14:00,
2013-05-12 12:24:00,62.5,53.0,29.66,SW,222,8.0,22.0,71,0.00,,,0.03,1104,Wunderground v.1.15,2013-05-12 16:24:00,
2013-05-12 12:34:00,62.4,52.9,29.66,SSW,198,10.0,22.0,71,0.00,,,0.03,1005,Wunderground v.1.15,2013-05-12 16:34:00,
2013-05-12 12:44:00,62.7,52.8,29.66,South,190,9.0,22.0,70,0.00,,,0.03,867,Wunderground v.1.15,2013-05-12 16:44:00,
2013-05-12 12:54:00,62.0,52.5,29.66,WSW,244,9.0,22.0,71,0.00,,,0.03,974,Wunderground v.1.15,2013-05-12 16:54:00,
2013-05-12 13:00:00,62.0,52.9,29.66,South,191,10.0,10.0,72,0.00,,,0.03,970,Wunderground v.1.15,2013-05-12 17:00:00,
2013-05-12 13:09:00,62.5,52.6,29.66,SSW,209,9.0,19.0,70,0.00,,,0.03,967,Wunderground v.1.15,2013-05-12 17:09:00,
2013-05-12 13:19:00,62.3,52.8,29.66,SSW,207,11.0,19.0,71,0.00,,,0.03,953,Wunderground v.1.15,2013-05-12 17:19:00,
2013-05-12 13:29:00,63.3,52.2,29.65,SSE,148,10.0,10.0,67,0.00,,,0.03,940,Wunderground v.1.15,2013-05-12 17:29:00,
2013-05-12 13:39:00,62.9,53.0,29.66,SSE,155,10.0,10.0,70,0.00,,,0.03,939,Wunderground v.1.15,2013-05-12 17:39:00,
2013-05-12 13:49:00,62.6,52.7,29.66,South,186,9.0,24.0,70,0.00,,,0.03,930,Wunderground v.1.15,2013-05-12 17:49:00,
2013-05-12 13:59:00,63.9,53.1,29.66,SSW,213,9.0,9.0,68,0.00,,,0.03,918,Wunderground v.1.15,2013-05-12 17:59:00,
2013-05-12 14:09:00,64.1,53.3,29.65,SSW,195,9.0,24.0,68,0.00,,,0.03,896,Wunderground v.1.15,2013-05-12 18:09:00,
2013-05-12 14:19:00,63.9,53.1,29.65,South,187,9.0,9.0,68,0.00,,,0.03,879,Wunderground v.1.15,2013-05-12 18:19:00,
2013-05-12 14:29:00,62.7,52.8,29.66,South,176,9.0,9.0,70,0.00,,,0.03,874,Wunderground v.1.15,2013-05-12 18:29:00,
2013-05-12 14:39:00,62.7,52.8,29.65,SSE,148,9.0,9.0,70,0.00,,,0.03,858,Wunderground v.1.15,2013-05-12 18:39:00,
2013-05-12 14:49:00,63.1,53.2,29.65,SSW,203,9.0,20.0,70,0.00,,,0.03,842,Wunderground v.1.15,2013-05-12 18:49:00,
2013-05-12 14:59:00,62.8,52.5,29.65,SW,219,8.0,20.0,69,0.00,,,0.03,823,Wunderground v.1.15,2013-05-12 18:59:00,
2013-05-12 15:09:00,63.6,52.8,29.64,SSW,195,8.0,20.0,68,0.00,,,0.03,803,Wunderground v.1.15,2013-05-12 19:09:00,
2013-05-12 15:19:00,64.1,52.1,29.64,SSW,201,11.0,11.0,65,0.00,,,0.03,780,Wunderground v.1.15,2013-05-12 19:19:00,
2013-05-12 15:24:00,63.6,52.0,29.64,SSW,193,10.0,16.0,66,0.00,,,0.03,765,Wunderground v.1.15,2013-05-12 19:24:00,
2013-05-12 15:34:00,63.0,52.3,29.64,South,173,10.0,25.0,68,0.00,,,0.03,751,Wunderground v.1.15,2013-05-12 19:34:00,
2013-05-12 15:44:00,63.2,52.5,29.64,SSW,212,10.0,25.0,68,0.00,,,0.03,712,Wunderground v.1.15,2013-05-12 19:44:00,
2013-05-12 15:54:00,63.1,52.4,29.65,SW,225,12.0,26.0,68,0.00,,,0.03,694,Wunderground v.1.15,2013-05-12 19:54:00,
2013-05-12 16:04:00,63.6,51.2,29.64,SSW,212,10.0,26.0,64,0.00,,,0.03,682,Wunderground v.1.15,2013-05-12 20:04:00,
2013-05-12 16:14:00,64.2,50.9,29.65,SSW,192,10.0,26.0,62,0.00,,,0.03,645,Wunderground v.1.15,2013-05-12 20:14:00,
2013-05-12 16:24:00,63.6,50.3,29.65,SSW,194,10.0,10.0,62,0.00,,,0.03,617,Wunderground v.1.15,2013-05-12 20:24:00,
2013-05-12 16:34:00,63.2,50.0,29.65,SSW,208,9.0,25.0,62,0.00,,,0.03,580,Wunderground v.1.15,2013-05-12 20:34:00,
2013-05-12 16:44:00,63.4,47.9,29.66,SW,223,10.0,25.0,57,0.00,,,0.03,559,Wunderground v.1.15,2013-05-12 20:44:00,
2013-05-12 16:49:00,63.6,47.6,29.65,SSW,196,10.0,10.0,56,0.00,,,0.03,536,Wunderground v.1.15,2013-05-12 20:49:00,
2013-05-12 16:59:00,63.3,48.7,29.65,SSW,198,9.0,9.0,59,0.00,,,0.03,515,Wunderground v.1.15,2013-05-12 20:59:00,
2013-05-12 17:04:00,63.7,47.7,29.66,SSW,193,10.0,10.0,56,0.00,,,0.03,501,Wunderground v.1.15,2013-05-12 21:04:00,
2013-05-12 17:14:00,64.4,44.3,29.66,SW,215,11.0,21.0,48,0.00,,,0.03,471,Wunderground v.1.15,2013-05-12 21:14:00,
2013-05-12 17:24:00,63.2,43.2,29.66,SW,234,12.0,22.0,48,0.00,,,0.03,436,Wunderground v.1.15,2013-05-12 21:24:00,
2013-05-12 17:29:00,62.6,42.6,29.67,South,180,12.0,22.0,48,0.00,,,0.03,417,Wunderground v.1.15,2013-05-12 21:29:00,
2013-05-12 17:39:00,62.6,42.1,29.67,SSW,195,11.0,11.0,47,0.00,,,0.03,383,Wunderground v.1.15,2013-05-12 21:39:00,
2013-05-12 17:49:00,62.2,43.8,29.67,South,173,12.0,12.0,51,0.00,,,0.03,346,Wunderground v.1.15,2013-05-12 21:49:00,
2013-05-12 17:59:00,62.0,43.1,29.67,SSW,196,13.0,13.0,50,0.00,,,0.03,311,Wunderground v.1.15,2013-05-12 21:59:00,
2013-05-12 18:10:00,61.7,44.4,29.67,SSW,196,12.0,12.0,53,0.00,,,0.03,274,Wunderground v.1.15,2013-05-12 22:10:00,
2013-05-12 18:19:00,61.3,45.0,29.68,SSW,206,11.0,11.0,55,0.00,,,0.03,243,Wunderground v.1.15,2013-05-12 22:19:00,
2013-05-12 18:29:00,62.0,45.2,29.68,SSW,212,11.0,11.0,54,0.00,,,0.03,207,Wunderground v.1.15,2013-05-12 22:29:00,
2013-05-12 18:39:00,61.9,45.5,29.69,SW,219,13.0,13.0,55,0.00,,,0.03,167,Wunderground v.1.15,2013-05-12 22:39:00,
2013-05-12 18:49:00,61.3,45.5,29.70,WSW,246,12.0,27.0,56,0.00,,,0.03,130,Wunderground v.1.15,2013-05-12 22:49:00,
2013-05-12 18:54:00,60.8,45.0,29.70,SSW,213,12.0,27.0,56,0.00,,,0.03,105,Wunderground v.1.15,2013-05-12 22:54:00,
2013-05-12 19:04:00,60.5,45.6,29.71,WSW,246,12.0,24.0,58,0.00,,,0.03,83,Wunderground v.1.15,2013-05-12 23:04:00,
2013-05-12 19:14:00,61.2,45.8,29.71,West,261,7.0,24.0,57,0.00,,,0.03,58,Wunderground v.1.15,2013-05-12 23:14:00,
2013-05-12 19:19:00,61.3,45.9,29.71,SW,225,8.0,24.0,57,0.00,,,0.03,46,Wunderground v.1.15,2013-05-12 23:19:00,
2013-05-12 19:29:00,62.5,35.9,29.72,SW,224,9.0,9.0,37,0.00,,,0.03,28,Wunderground v.1.15,2013-05-12 23:29:00,
2013-05-12 19:35:00,62.7,34.6,29.72,West,263,8.0,12.0,35,0.00,,,0.03,23,Wunderground v.1.15,2013-05-12 23:35:00,
2013-05-12 19:44:00,62.2,32.7,29.73,WSW,238,6.0,23.0,33,0.00,,,0.03,14,Wunderground v.1.15,2013-05-12 23:44:00,
2013-05-12 19:54:00,61.6,32.9,29.74,WSW,245,7.0,23.0,34,0.00,,,0.03,7,Wunderground v.1.15,2013-05-12 23:54:00,
2013-05-12 20:00:00,61.3,32.7,29.74,SW,227,7.0,7.0,34,0.00,,,0.03,5,Wunderground v.1.15,2013-05-13 00:00:00,
2013-05-12 20:09:00,60.5,33.4,29.75,WSW,249,5.0,5.0,36,0.00,,,0.03,0,Wunderground v.1.15,2013-05-13 00:09:00,
2013-05-12 20:19:00,60.1,33.7,29.76,West,259,5.0,16.0,37,0.00,,,0.03,0,Wunderground v.1.15,2013-05-13 00:19:00,
2013-05-12 20:24:00,59.8,33.5,29.76,WSW,242,5.0,16.0,37,0.00,,,0.03,0,Wunderground v.1.15,2013-05-13 00:24:00,
2013-05-12 20:34:00,59.4,33.8,29.76,West,269,6.0,13.0,38,0.00,,,0.03,0,Wunderground v.1.15,2013-05-13 00:34:00,
2013-05-12 20:40:00,59.2,33.6,29.76,West,273,6.0,6.0,38,0.00,,,0.03,0,Wunderground v.1.15,2013-05-13 00:40:00,
2013-05-12 20:49:00,58.7,34.4,29.77,WSW,242,6.0,13.0,40,0.00,,,0.03,0,Wunderground v.1.15,2013-05-13 00:49:00,
2013-05-12 20:59:00,58.3,34.1,29.77,SW,232,6.0,6.0,40,0.00,,,0.03,0,Wunderground v.1.15,2013-05-13 00:59:00,
2013-05-12 21:04:00,58.0,34.4,29.78,WSW,250,5.0,13.0,41,0.00,,,0.03,0,Wunderground v.1.15,2013-05-13 01:04:00,
2013-05-12 21:14:00,57.6,34.7,29.78,WSW,247,5.0,13.0,42,0.00,,,0.03,0,Wunderground v.1.15,2013-05-13 01:14:00,
2013-05-12 21:20:00,57.2,34.9,29.79,WSW,239,5.0,13.0,43,0.00,,,0.03,0,Wunderground v.1.15,2013-05-13 01:20:00,
2013-05-12 21:29:00,56.9,35.2,29.79,SW,232,5.0,13.0,44,0.00,,,0.03,0,Wunderground v.1.15,2013-05-13 01:29:00,
2013-05-12 21:39:00,56.7,35.0,29.80,SW,235,6.0,13.0,44,0.00,,,0.03,0,Wunderground v.1.15,2013-05-13 01:39:00,
2013-05-12 21:44:00,56.8,35.1,29.80,WNW,300,7.0,13.0,44,0.00,,,0.03,0,Wunderground v.1.15,2013-05-13 01:44:00,
2013-05-12 21:54:00,56.8,33.9,29.81,West,265,7.0,16.0,42,0.00,,,0.03,0,Wunderground v.1.15,2013-05-13 01:54:00,
2013-05-12 22:04:00,56.9,32.8,29.82,WSW,254,7.0,16.0,40,0.00,,,0.03,0,Wunderground v.1.15,2013-05-13 02:04:00,
2013-05-12 22:14:00,57.0,31.6,29.83,SSW,209,8.0,16.0,38,0.00,,,0.03,0,Wunderground v.1.15,2013-05-13 02:14:00,
2013-05-12 22:24:00,56.8,31.4,29.83,West,267,9.0,17.0,38,0.00,,,0.03,0,Wunderground v.1.15,2013-05-13 02:24:00,
2013-05-12 22:34:00,56.7,31.4,29.84,SW,236,8.0,17.0,38,0.00,,,0.03,0,Wunderground v.1.15,2013-05-13 02:34:00,
2013-05-12 22:45:00,56.5,31.8,29.84,WSW,240,8.0,17.0,39,0.00,,,0.03,0,Wunderground v.1.15,2013-05-13 02:45:00,
2013-05-12 22:54:00,56.2,32.8,29.85,WSW,256,7.0,17.0,41,0.00,,,0.03,0,Wunderground v.1.15,2013-05-13 02:54:00,
2013-05-12 23:05:00,56.0,33.2,29.85,WSW,242,7.0,17.0,42,0.00,,,0.03,0,Wunderground v.1.15,2013-05-13 03:05:00,
2013-05-12 23:14:00,55.4,33.8,29.86,WSW,244,6.0,17.0,44,0.00,,,0.03,0,Wunderground v.1.15,2013-05-13 03:14:00,
2013-05-12 23:24:00,55.2,33.1,29.86,West,259,7.0,8.0,43,0.00,,,0.03,0,Wunderground v.1.15,2013-05-13 03:24:00,
2013-05-12 23:29:00,55.1,32.4,29.87,SSW,209,7.0,23.0,42,0.00,,,0.03,0,Wunderground v.1.15,2013-05-13 03:29:00,
2013-05-12 23:39:00,55.1,31.2,29.87,WSW,244,10.0,10.0,40,0.00,,,0.03,0,Wunderground v.1.15,2013-05-13 03:39:00,
2013-05-12 23:49:00,54.7,30.8,29.88,WSW,241,9.0,23.0,40,0.00,,,0.03,0,Wunderground v.1.15,2013-05-13 03:49:00,
2013-05-12 23:59:00,54.4,29.9,29.88,WSW,255,10.0,10.0,39,0.00,,,0.03,0,Wunderground v.1.15,2013-05-13 03:59:00,